Weather past 2 weeks in Saipan, Northern Mariana Islands

Now
86 °F

Scattered clouds.


Feels Like: 96 °F
Forecast: 76 / 82 °F
Wind: 17 mph from East

Location: Saipan International Airport

Current Time: Nov 23, 2014 at 3:05:32 PM

Latest Report: Nov 23, 2014 at 1:54 PM


Visibility: 10 mi

Pressure: 29.92 "Hg

Humidity: 72%

Dew point: 76 °F

Location of SaipanLocation

Historic Weather in Saipan — Graph

°F

Saipan temperature yesterday

Maximum temperature yesterday: 87 °F (at 11:54 AM)
Minimum temperature yesterday: 79 °F (at 8:02 PM)
Average temperature yesterday: 82 °F

Past Weeks' High & Low Weather Summary

 TemperatureHumidityPressure
High88 °F (Nov 13, 12:54 PM)100% (Nov 12, 1:54 AM)30.02 "Hg (Nov 12, 1:54 AM)
Low30 °F (Nov 17, 9:54 AM)67% (Nov 11, 2:54 PM)29.79 "Hg (Nov 12, 5:03 PM)
Average82 °F86%29.93 "Hg
* Reported Nov 8 1:54 PM — Nov 23 1:54 PM, Saipan, Weather by CustomWeather, © 2014

Note: Actual official high and low records may vary slightly from our data, if they occured in-between our weather recording intervals... More about our weather records

Advertising

Saipan weather history for previous 24 hours

 ConditionsComfort  
Time TempWeatherWind HumidityBarometerVisibility
1:54 PM
Nov 23
86 °FScattered clouds.17 mph72%29.92 "Hg10 mi
12:54 PM87 °FScattered clouds.14 mph69%29.94 "Hg10 mi
11:54 AM87 °FScattered clouds.20 mph72%29.96 "Hg10 mi
10:54 AM86 °FScattered clouds.18 mph75%29.98 "Hg10 mi
9:54 AM85 °FScattered clouds.18 mph75%29.99 "Hg10 mi
8:54 AM84 °FPassing clouds.18 mph74%29.98 "Hg10 mi
7:54 AM83 °FScattered clouds.16 mph77%29.97 "Hg10 mi
6:54 AM81 °FPassing clouds.14 mph85%29.96 "Hg10 mi
5:54 AM80 °FOvercast.13 mph85%29.94 "Hg10 mi
4:54 AM80 °FPassing clouds.10 mph87%29.93 "Hg10 mi
3:54 AM80 °FOvercast.14 mph87%29.91 "Hg10 mi
2:54 AM80 °FPartly cloudy.20 mph90%29.92 "Hg10 mi
1:54 AM78 °FPassing clouds.20 mph93%29.94 "Hg7 mi
12:54 AM81 °FPassing clouds.14 mph88%29.95 "Hg10 mi
11:54 PM
Nov 22
81 °FPassing clouds.13 mph88%29.97 "Hg10 mi
10:54 PM80 °FPassing clouds.14 mph90%29.97 "Hg10 mi
9:54 PM80 °FMostly cloudy.25 mph94%29.97 "Hg10 mi
9:08 PM79 °FRain. Fog.25 mph89%29.90 "Hg4 mi
9:01 PM81 °FMostly cloudy.25 mph89%29.91 "Hg8 mi
8:54 PM81 °FMostly cloudy.16 mph91%29.96 "Hg10 mi
8:02 PM79 °FLight rain. Partly cloudy.N/A89%29.89 "Hg10 mi
7:54 PM80 °FRain. Fog.17 mph90%29.96 "Hg6 mi
7:20 PM81 °FPartly cloudy.17 mph94%29.88 "Hg10 mi
6:54 PM81 °FPassing clouds.20 mph88%29.94 "Hg10 mi
5:54 PM81 °FPartly cloudy.15 mph91%29.92 "Hg10 mi
4:54 PM83 °FScattered clouds.17 mph77%29.90 "Hg10 mi
3:54 PM84 °FScattered clouds.17 mph83%29.89 "Hg10 mi
Weather by CustomWeather, © 2014

See weather overviewHow to use our weather pages